User: anonymous   Login
Location: Unspecified
(0.0000°N, 0.0000°E)
Time: 02:13:14
(UTC+00:00)
Language:

Transit 2A Rocket - Orbit

View from above orbital plane
View from above orbital plane
View from above satellite
View from above satellite

Ground track
Ground track

The orbit data is extracted from the following two-line orbital elements,

1 00047U 60007C   18053.06594272 -.00000046  00000-0  15008-4 0  9995
2 00047  66.6640 257.8986 0230942 204.1699 154.8435 14.41967221 13086
Epoch (UTC): 22 February 2018 01:34:57
Eccentricity: 0.0230942
inclination: 66.6640°
perigee height: 587 km
apogee height: 916 km
right ascension of ascending node: 257.8986°
argument of perigee: 204.1699°
revolutions per day: 14.41967221
mean anomaly at epoch: 154.8435°
orbit number at epoch: 1308

The dashed part of the orbit path shows where the satellite is in the earth's shadow,  

DLR